Location: Castellnou de Avellan�s
(42.4044°N, 0.9139°E)
Time: 22:34:41
(UTC+00:00)

Daily predictions for brighter satellites

Satellite Brightness Start Highest point End
(mag) Time Altitude Azimuth Time Altitude Azimuth Time Altitude Azimuth
SL-24 R/B 4.3 18:12:40 10° SSE 18:17:05 86° WSW 18:21:55 10° NNW
Cosmos 1300 Rocket 4.0 18:14:06 10° SSE 18:18:11 39° E 18:22:19 10° NNE
Sich 1 Rocket 3.6 18:17:58 10° S 18:22:27 72° E 18:27:01 10° NNE
Cosmos 1943 4.3 18:18:54 10° NW 18:24:20 49° WSW 18:29:44 10° S
Cosmos 2298 Rocket 4.1 18:19:16 10° S 18:24:28 58° ESE 18:29:42 10° NNE
Cosmos 1975 4.3 18:21:52 10° SSW 18:25:46 43° WNW 18:29:41 10° N
CENTAUR R/B 3.6 18:18:16 10° NNW 18:25:55 46° NE 18:34:16 10° ESE
Iridium 4 Rocket 4.1 18:21:44 10° S 18:26:49 69° W 18:32:25 10° N
Cosmos 1437 4.3 18:25:05 10° NNW 18:27:54 37° W 18:30:41 10° SSW
CSL-04 Debris 4.3 18:24:02 10° SE 18:29:14 52° ENE 18:34:27 10° N
Helios 1A Rocket 3.6 18:26:58 10° S 18:31:01 60° W 18:35:07 10° NNW
CSL-04 Rocket 3.9 18:25:56 10° SE 18:31:11 52° ENE 18:36:32 10° N
ATLAS 2AS CENTAUR R/B 3.6 18:25:32 10° S 18:32:20 33° ESE 18:39:10 10° NE
Okean 2 Rocket 3.1 18:28:17 10° S 18:32:41 58° E 18:37:05 10° NNE
YAOGAN 1 2.5 18:29:27 10° SSE 18:33:45 76° ENE 18:38:06 10° N
Cosmos 1025 Rocket 3.3 18:31:22 10° N 18:35:38 49° ENE 18:39:54 10° SSE
ATLAS 3B R/B 4.1 18:32:29 10° NNW 18:37:37 22° NNE 18:42:35 11° ENE
Cosmos 1513 Rocket 4.4 18:33:55 10° S 18:40:08 73° E 18:46:16 10° NNE
Abrixas rocket 3.1 18:37:44 10° NW 18:40:19 30° NNE 18:42:11 15° ENE
CREW DRAGON DEMO-1 DEB 4.2 18:39:49 10° NW 18:42:29 27° NNE 18:44:16 16° ENE
Cosmos 1125 Rocket 3.6 18:39:57 10° S 18:45:06 54° ESE 18:50:17 10° NNE
Cosmos 1536 Rocket 3.9 18:41:07 10° N 18:45:26 46° ENE 18:49:44 10° SSE
SJ-6B 4.3 18:48:31 17° E 18:49:17 18° ENE 18:51:50 10° NNE
CZ-4 R/B 2.2 18:47:14 10° S 18:51:22 56° W 18:55:29 10° NNW
Cosmos 2150 Rocket 4.1 18:46:37 10° SSW 18:52:00 88° WNW 18:57:30 10° NNE
SJ-11-01 4.2 18:47:44 10° SSE 18:52:24 70° ENE 18:57:05 10° N
CZ-2C R/B 3.2 18:48:04 10° SSE 18:53:24 88° ENE 18:59:04 10° NNW
Cosmos 1464 Rocket 4.0 18:47:21 10° S 18:53:29 88° E 18:59:42 10° N
Okean-O 3.8 18:51:00 10° S 18:55:14 45° W 18:59:31 10° NNW
USA 238 DEB 3.9 18:48:09 10° NW 18:55:26 81° NE 19:02:59 10° SE
USA 238 3.9 18:48:15 10° NW 18:55:33 80° NE 19:03:05 10° SE
Cosmos 2285 Rocket 4.1 18:49:39 10° S 18:55:45 55° ESE 19:01:56 10° NNE
Cosmos 1674 3.2 18:54:09 10° N 18:57:46 38° ENE 19:00:17 17° SE
Cosmos 1092 Rocket 4.4 18:53:04 10° N 18:58:49 39° ENE 19:04:17 11° SE
MOS 1 Rocket 2.9 19:00:12 10° NNE 19:04:33 74° E 19:08:49 10° S
TSX-5 4.2 19:03:34 10° S 19:07:02 42° ESE 19:11:23 10° NE
ARGOS 3.1 19:03:43 10° SSE 19:09:02 71° ENE 19:14:24 10° N
In-Cosmos 22 4.4 19:06:45 10° NNW 19:12:04 71° W 19:17:27 10° S
Cosmos 1048 Rocket 4.2 19:07:50 10° NNW 19:13:11 78° WSW 19:18:33 10° SSE
Cosmos 1733 3.7 19:13:47 32° ESE 19:14:38 37° E 19:18:11 10° NNE
CZ-2C R/B 3.0 19:09:32 10° NNE 19:14:53 45° E 19:20:16 10° S
Cosmos 2151 Rocket 3.9 19:10:55 10° SSW 19:15:20 68° W 19:19:51 10° N
HJ-1C 4.0 19:12:51 10° S 19:16:05 55° W 19:19:20 10° NNW
IRIS 4.2 19:13:39 10° WSW 19:17:38 62° S 19:18:07 52° SE
Lacrosse 5 rocket 3.9 19:16:10 10° NNW 19:18:12 13° N 19:20:15 10° NE
NOSS 3-2 (A) 4.3 19:12:17 10° NW 19:19:56 72° WSW 19:28:28 10° SSE
Cosmos 2082 Rocket 3.9 19:17:00 10° N 19:20:26 16° NE 19:21:17 16° ENE
Shenzhou-11 Module 3.2 19:19:30 10° WSW 19:20:33 24° SW 19:20:33 24° SW
BREEZE-M DEB (TANK) 3.1 19:19:17 10° WNW 19:22:32 80° SSW 19:27:36 24° SE
DMSP B5D2-2 4.3 19:19:37 10° NNE 19:24:43 46° E 19:29:47 10° S
Meteor 1-15 Rocket 4.2 19:20:19 10° S 19:25:57 88° W 19:31:45 10° N
Cosmos 494 Rocket 3.9 19:20:41 10° NNW 19:25:59 89° ENE 19:29:53 19° SSE
Cosmos 1805 3.1 19:22:35 10° S 19:26:29 79° E 19:30:25 10° N
OBJECT-B 3.1 19:28:48 15° NNE 19:28:48 15° NNE 19:29:34 10° NNE
ATLAS 5 CENTAUR R/B 4.5 19:23:40 10° WNW 19:27:24 34° SW 19:38:08 10° SSE
Ariane Rocket 2.9 19:28:06 26° SSE 19:30:55 66° ENE 19:35:59 10° N
SL-08 RB Rocket 3.6 19:27:52 20° SSE 19:30:59 83° ENE 19:35:32 10° N
Milstar 3 Cent rocket 3.8 19:25:41 10° SW 19:31:01 21° S 19:32:39 19° SSE
H-2A R/B 2.7 19:27:32 10° S 19:32:23 53° W 19:37:24 10° NNW
USA 234 4.1 19:38:14 28° SE 19:38:14 28° SE 19:42:45 10° S
Cosmos 1269 Rocket 4.0 19:32:39 10° NNW 19:37:57 63° ENE 19:39:33 42° SE
Nadezhda 4 Rocket 4.4 19:33:18 10° NNW 19:39:20 64° W 19:45:22 10° S
KORONAS-FOTON 4.2 19:35:26 10° NNW 19:39:20 65° W 19:41:31 24° S
MetOp-A 4.0 19:40:20 37° SE 19:42:26 68° ENE 19:47:46 10° N
USA 186 2.0 19:42:34 69° W 19:42:34 69° W 19:45:49 10° NNW
Cosmos 1626 2.9 19:39:27 10° N 19:42:02 39° NNE 19:42:02 39° NNE
Cosmos 1844 Rocket 4.1 19:39:57 10° SW 19:45:06 38° WNW 19:50:18 10° N
COSMOS 2406 3.4 19:41:31 10° NNW 19:47:04 51° ENE 19:47:56 47° E
ISS -1.4 19:44:56 10° NW 19:47:15 17° N 19:47:46 16° N
Cosmos 2278 Rocket 3.2 19:43:40 10° S 19:51:32 29° NE 19:54:29 10° NE
IRS-1A Rocket 4.4 19:47:48 23° SSE 19:51:42 84° WSW 19:57:34 10° NNW
Meteor 1-22 Rocket 4.2 19:47:56 10° S 19:53:49 80° E 19:59:53 10° NNE
Lacrosse 4 Rocket 3.4 19:51:11 10° N 19:52:52 17° NNE 19:52:52 17° NNE
Meteor 2-5 Rocket 3.8 19:51:55 10° NNW 19:57:38 79° W 20:00:46 28° S
NOSS 3-2 (C) 4.4 19:50:34 10° NW 19:58:13 66° WSW 20:03:38 24° SSE
Okean 1 Rocket 4.0 19:54:45 10° SSW 19:59:06 50° WNW 20:03:29 10° N
Meteor 1-24 Rocket 3.6 19:54:21 10° N 19:59:58 84° E 20:01:37 49° SSE
NOSS 3-4 (A) 3.6 19:54:23 10° SW 20:00:15 70° NW 20:06:32 10° NNE
NOSS 3-4 (C) 3.6 19:54:29 10° SW 20:00:21 70° NW 20:06:38 10° NNE
Resurs 01 Rocket 3.0 20:03:27 28° NNE 20:03:27 28° NNE 20:05:53 10° N
SL-14 R/B 4.0 19:59:06 10° N 20:01:55 45° N 20:01:55 45° N
Cosmos 1833 Rocket 2.8 20:06:35 10° NNW 20:11:54 59° NE 20:11:54 59° NE
CENTAUR R/B 3.7 20:08:58 10° NW 20:17:01 56° WSW 20:21:59 27° S
SPOT 3 Rocket 3.6 20:20:50 71° N 20:20:50 71° N 20:25:27 10° NNW
Cosmos 1634 Rocket 4.4 20:16:13 10° SSW 20:22:18 60° W 20:28:27 10° N
ATLAS 2AS CENTAUR R/B 3.4 20:15:03 10° SW 20:22:56 64° NW 20:30:47 10° NNE
SJ-6B 4.4 20:24:09 31° W 20:24:09 31° W 20:27:06 10° NNW
ATLAS 3B R/B 2.6 20:22:32 10° NNW 20:29:27 75° NE 20:29:50 73° E
Cosmos 1655 Rocket 4.2 20:32:39 10° N 20:37:50 59° NNE 20:37:50 59° NNE
Lacrosse 5 rocket 4.0 20:54:49 10° NNW 20:56:20 18° NNW 20:56:20 18° NNW
Cosmos 2082 Rocket 3.3 20:59:40 10° NNW 21:03:08 39° NNW 21:03:08 39° NNW
Cosmos 2278 Rocket 4.0 21:28:36 10° WSW 21:33:22 27° NW 21:38:09 10° N
